Terug naar catalogus

STARLINK-35797

ActiefCommunicatieVLEO
NORAD 66364·PAYLOAD·🇺🇸 United States

Gelanceerd Nov 6, 2025 vanaf Vandenberg Space Force Base

Loading…

Volgende Passages (komende 24 uur)

TLE

VersSource: CelesTrak SupGP

Epoch: Sep 15, 2026, 03:40 UTC

1 66364C 25254S   26258.15326389 -.00023750  00000+0 -70168-3 0  2584
2 66364  53.1587  70.8398 0001187  81.0091 348.6980 15.34403857    16

Volg STARLINK-35797 in realtime met AllMySat

Download on the App Store